FDX9900 EKCH-LIMC

Flight info

Callsign FDX9900
Flight time N/A
Altitude 36000
Route NEXEN T503 MICOS DCT BOMBI DCT GIGET DCT ABUKA DCT KRH DCT NATOR/N0482F350 DCT TRA DCT RIPUS DCT GERSA DCT SOSON DCT DEGAD DCT BASGO/N0494F290 Z424 AKASU/N0421F190 Z424 RIXUV
Aircraft B77L/H-SDE1E2E3FGHIJ2J3J4J5M1RWXY/LB1D1

Departure

Time N/A
Airport Copenhagen Kastrup Airport (EKCH)

Arrival

Time 2026-05-06 14:20
Airport Milan Malpensa International Airport (LIMC)
Time Latitude Longitude Altitude Speed Heading
2026-05-06 12:41 54.76196 11.56385 34029 ft 451 kts 214°
2026-05-06 12:41 54.73652 11.53225 34336 ft 451 kts 214°
2026-05-06 12:41 54.71101 11.50060 34613 ft 452 kts 214°
2026-05-06 12:42 54.68540 11.46886 34906 ft 452 kts 214°
2026-05-06 12:42 54.65986 11.43724 35202 ft 451 kts 214°
2026-05-06 12:42 54.63433 11.40567 35484 ft 451 kts 214°
2026-05-06 12:42 54.60880 11.37413 35740 ft 452 kts 215°
2026-05-06 12:43 54.55725 11.31065 35876 ft 457 kts 215°
2026-05-06 12:43 54.50559 11.24742 35881 ft 453 kts 214°
2026-05-06 12:44 54.45476 11.18546 35888 ft 450 kts 214°
2026-05-06 12:44 54.40372 11.12337 35890 ft 449 kts 214°
2026-05-06 12:45 54.35265 11.06142 35888 ft 449 kts 214°
2026-05-06 12:46 54.27076 10.98421 35888 ft 450 kts 201°
2026-05-06 12:46 54.21137 10.94989 35884 ft 451 kts 198°
2026-05-06 12:47 54.15172 10.91650 35879 ft 452 kts 198°
2026-05-06 12:47 54.09179 10.88275 35881 ft 454 kts 199°
2026-05-06 12:48 54.03185 10.84883 35880 ft 455 kts 199°
2026-05-06 12:48 53.97169 10.81480 35884 ft 456 kts 199°
2026-05-06 12:49 53.91149 10.78083 35882 ft 456 kts 199°
2026-05-06 12:49 53.85121 10.74694 35882 ft 456 kts 199°
2026-05-06 12:50 53.80118 10.71890 35886 ft 456 kts 199°
2026-05-06 12:50 53.74086 10.68517 35882 ft 456 kts 199°
2026-05-06 12:51 53.68056 10.65156 35881 ft 456 kts 199°
2026-05-06 12:51 53.62027 10.61807 35891 ft 457 kts 199°
2026-05-06 12:52 53.55988 10.58461 35856 ft 457 kts 199°
2026-05-06 12:52 53.49947 10.55124 35853 ft 457 kts 199°
2026-05-06 12:53 53.43910 10.51799 35844 ft 457 kts 199°
2026-05-06 12:53 53.37906 10.48503 35844 ft 457 kts 199°
2026-05-06 12:54 53.31819 10.45171 35858 ft 457 kts 199°
2026-05-06 12:54 53.25768 10.41868 35838 ft 457 kts 199°
2026-05-06 12:55 53.19760 10.38599 35843 ft 457 kts 199°
2026-05-06 12:55 53.13663 10.35291 35825 ft 458 kts 199°
2026-05-06 12:56 53.07648 10.32037 35824 ft 458 kts 199°
2026-05-06 12:56 53.01591 10.28771 35843 ft 457 kts 199°
2026-05-06 12:57 52.95542 10.25518 35824 ft 457 kts 199°
2026-05-06 12:57 52.89482 10.22269 35821 ft 457 kts 199°
2026-05-06 12:58 52.83436 10.19037 35822 ft 457 kts 199°
2026-05-06 12:58 52.77390 10.15814 35838 ft 456 kts 199°
2026-05-06 12:59 52.71343 10.12600 35820 ft 456 kts 199°
2026-05-06 12:59 52.65303 10.09399 35834 ft 456 kts 199°
2026-05-06 13:00 52.59256 10.06204 35834 ft 457 kts 199°
2026-05-06 13:00 52.53200 10.03013 35825 ft 457 kts 199°
2026-05-06 13:01 52.47137 9.99829 35825 ft 457 kts 199°
2026-05-06 13:01 52.41075 9.96653 35832 ft 457 kts 199°
2026-05-06 13:02 52.35012 9.93486 35834 ft 457 kts 199°
2026-05-06 13:02 52.28949 9.90329 35830 ft 458 kts 199°
2026-05-06 13:03 52.22873 9.87174 35823 ft 458 kts 199°
2026-05-06 13:03 52.16799 9.84029 35814 ft 458 kts 199°
2026-05-06 13:04 52.10723 9.80891 35813 ft 458 kts 199°
2026-05-06 13:04 52.04644 9.77762 35822 ft 458 kts 199°
2026-05-06 13:05 51.98570 9.74643 35807 ft 458 kts 199°
2026-05-06 13:05 51.92498 9.71535 35798 ft 457 kts 199°
2026-05-06 13:06 51.86427 9.68436 35793 ft 458 kts 199°
2026-05-06 13:06 51.80366 9.65350 35790 ft 457 kts 199°
2026-05-06 13:07 51.74287 9.62266 35786 ft 456 kts 199°
2026-05-06 13:07 51.68271 9.59221 35784 ft 456 kts 199°
2026-05-06 13:08 51.62220 9.56166 35781 ft 456 kts 199°
2026-05-06 13:08 51.56183 9.53127 35772 ft 455 kts 199°
2026-05-06 13:09 51.50130 9.50089 35772 ft 455 kts 199°
2026-05-06 13:09 51.44086 9.47064 35777 ft 455 kts 199°
2026-05-06 13:10 51.38049 9.44050 35771 ft 455 kts 198°
2026-05-06 13:10 51.32004 9.41041 35774 ft 454 kts 198°
2026-05-06 13:11 51.25971 9.38046 35769 ft 454 kts 198°
2026-05-06 13:11 51.19933 9.35057 35748 ft 454 kts 198°
2026-05-06 13:12 51.13901 9.32079 35743 ft 454 kts 198°
2026-05-06 13:12 51.07866 9.29108 35745 ft 454 kts 198°
2026-05-06 13:13 51.01843 9.26150 35762 ft 454 kts 198°
2026-05-06 13:13 50.95782 9.23182 35742 ft 455 kts 198°
2026-05-06 13:14 50.89732 9.20228 35746 ft 455 kts 198°
2026-05-06 13:14 50.83692 9.17287 35744 ft 455 kts 198°
2026-05-06 13:15 50.77637 9.14346 35744 ft 455 kts 198°
2026-05-06 13:15 50.71587 9.11415 35750 ft 455 kts 198°
2026-05-06 13:16 50.65545 9.08497 35744 ft 455 kts 198°
2026-05-06 13:16 50.59478 9.05574 35745 ft 455 kts 198°
2026-05-06 13:17 50.53418 9.02662 35749 ft 455 kts 198°
2026-05-06 13:17 50.47375 8.99766 35747 ft 455 kts 198°
2026-05-06 13:18 50.41327 8.96876 35751 ft 454 kts 198°
2026-05-06 13:18 50.35286 8.93995 35749 ft 454 kts 198°
2026-05-06 13:19 50.29244 8.91124 35756 ft 453 kts 198°
2026-05-06 13:19 50.23209 8.88262 35760 ft 453 kts 198°
2026-05-06 13:20 50.17225 8.85432 35767 ft 452 kts 198°
2026-05-06 13:20 50.11161 8.82570 35769 ft 452 kts 198°
2026-05-06 13:21 50.05257 8.79970 35776 ft 452 kts 193°
2026-05-06 13:21 49.99032 8.78555 35782 ft 452 kts 188°
2026-05-06 13:22 49.92824 8.77339 35770 ft 453 kts 189°
2026-05-06 13:22 49.86577 8.76072 35768 ft 453 kts 189°
2026-05-06 13:23 49.80324 8.74789 35775 ft 453 kts 189°
2026-05-06 13:23 49.74059 8.73507 35772 ft 454 kts 189°
2026-05-06 13:24 49.67794 8.72231 35782 ft 455 kts 189°
2026-05-06 13:24 49.61530 8.70954 35775 ft 455 kts 189°
2026-05-06 13:25 49.55235 8.69672 35771 ft 455 kts 189°
2026-05-06 13:25 49.48940 8.68396 35769 ft 456 kts 189°
2026-05-06 13:26 49.42657 8.67122 35772 ft 456 kts 189°
2026-05-06 13:26 49.36359 8.65847 35781 ft 456 kts 189°
2026-05-06 13:27 49.30080 8.64577 35781 ft 455 kts 189°
2026-05-06 13:27 49.23809 8.63313 35780 ft 454 kts 189°
2026-05-06 13:28 49.17619 8.62068 35787 ft 453 kts 189°
2026-05-06 13:28 49.11376 8.60815 35795 ft 452 kts 189°
2026-05-06 13:29 49.05141 8.59567 35798 ft 452 kts 189°
2026-05-06 13:29 48.98917 8.58286 35795 ft 450 kts 192°
2026-05-06 13:30 48.92796 8.56351 35801 ft 448 kts 194°
2026-05-06 13:30 48.86709 8.54342 35807 ft 448 kts 194°
2026-05-06 13:31 48.80608 8.52354 35801 ft 448 kts 194°
2026-05-06 13:31 48.74520 8.50391 35798 ft 447 kts 194°
2026-05-06 13:32 48.68435 8.48436 35803 ft 447 kts 194°
2026-05-06 13:32 48.62396 8.46501 35809 ft 446 kts 194°
2026-05-06 13:33 48.56326 8.44561 35803 ft 446 kts 193°
2026-05-06 13:33 48.50265 8.42629 35818 ft 445 kts 194°
2026-05-06 13:34 48.44203 8.40700 35811 ft 445 kts 193°
2026-05-06 13:34 48.38148 8.38778 35833 ft 445 kts 193°
2026-05-06 13:35 48.32073 8.36854 35818 ft 447 kts 193°
2026-05-06 13:35 48.25988 8.34931 35817 ft 447 kts 193°
2026-05-06 13:36 48.20927 8.33417 35814 ft 447 kts 189°
2026-05-06 13:36 48.14718 8.33017 35828 ft 449 kts 181°
2026-05-06 13:37 48.08492 8.34050 35831 ft 451 kts 174°
2026-05-06 13:37 48.02296 8.35621 35828 ft 451 kts 174°
2026-05-06 13:38 47.96114 8.37170 35829 ft 450 kts 174°
2026-05-06 13:38 47.89931 8.38674 35834 ft 450 kts 174°
2026-05-06 13:39 47.83756 8.40159 35839 ft 449 kts 174°
2026-05-06 13:39 47.77577 8.41643 35848 ft 450 kts 174°
2026-05-06 13:40 47.71412 8.43122 35851 ft 450 kts 174°
2026-05-06 13:40 47.65211 8.44317 35874 ft 448 kts 178°
2026-05-06 13:41 47.59009 8.45201 35872 ft 448 kts 178°
2026-05-06 13:41 47.52832 8.46083 35866 ft 449 kts 178°
2026-05-06 13:42 47.46618 8.46988 35883 ft 449 kts 178°
2026-05-06 13:42 47.40393 8.47900 35888 ft 450 kts 178°
2026-05-06 13:43 47.34164 8.48810 35885 ft 450 kts 178°
2026-05-06 13:43 47.27914 8.49721 35879 ft 452 kts 178°
2026-05-06 13:44 47.21650 8.50632 35868 ft 451 kts 178°
2026-05-06 13:44 47.15425 8.51535 35873 ft 449 kts 178°
2026-05-06 13:45 47.09255 8.52427 35909 ft 448 kts 178°
2026-05-06 13:45 46.99961 8.53769 35907 ft 447 kts 178°
2026-05-06 13:46 46.93742 8.54666 35906 ft 445 kts 178°
2026-05-06 13:46 46.87643 8.55545 35900 ft 442 kts 179°
2026-05-06 13:47 46.81485 8.56430 35882 ft 441 kts 179°
2026-05-06 13:47 46.75385 8.57302 35046 ft 452 kts 179°
2026-05-06 13:48 46.72260 8.57748 34418 ft 449 kts 179°
2026-05-06 13:48 46.69161 8.58193 33591 ft 447 kts 179°
2026-05-06 13:48 46.66067 8.58636 32606 ft 446 kts 179°
2026-05-06 13:48 46.62974 8.59075 31657 ft 446 kts 179°
2026-05-06 13:49 46.59890 8.59514 30717 ft 445 kts 179°
2026-05-06 13:49 46.56834 8.59946 30064 ft 439 kts 179°
2026-05-06 13:49 46.53811 8.60372 29292 ft 434 kts 179°
2026-05-06 13:49 46.50828 8.60791 28566 ft 428 kts 179°
2026-05-06 13:50 46.47894 8.61146 27982 ft 416 kts 183°
2026-05-06 13:50 46.45053 8.60787 27365 ft 406 kts 194°
2026-05-06 13:50 46.42346 8.59778 26733 ft 401 kts 199°
2026-05-06 13:50 46.39754 8.58353 26104 ft 395 kts 206°
2026-05-06 13:51 46.37400 8.56357 25525 ft 391 kts 213°
2026-05-06 13:51 46.35116 8.54225 24903 ft 390 kts 212°
2026-05-06 13:51 46.32822 8.52138 24317 ft 388 kts 212°
2026-05-06 13:51 46.30523 8.50119 23686 ft 385 kts 208°
2026-05-06 13:52 46.28024 8.48720 23077 ft 386 kts 197°
2026-05-06 13:52 46.25403 8.47948 22423 ft 384 kts 190°
2026-05-06 13:52 46.22747 8.47752 21886 ft 382 kts 179°
2026-05-06 13:52 46.20109 8.48179 21330 ft 381 kts 176°
2026-05-06 13:53 46.17485 8.48629 20808 ft 378 kts 176°
2026-05-06 13:53 46.14881 8.49031 20254 ft 377 kts 176°
2026-05-06 13:53 46.12275 8.49514 19710 ft 377 kts 172°
2026-05-06 13:53 46.09727 8.50359 19204 ft 376 kts 167°
2026-05-06 13:54 46.07250 8.51554 18682 ft 375 kts 162°
2026-05-06 13:54 46.04815 8.52883 18182 ft 374 kts 162°
2026-05-06 13:54 46.02384 8.54214 17574 ft 372 kts 161°
2026-05-06 13:54 45.99972 8.55528 17056 ft 369 kts 162°
2026-05-06 13:55 45.97577 8.56824 16512 ft 366 kts 162°
2026-05-06 13:55 45.95201 8.58106 15998 ft 364 kts 162°
2026-05-06 13:55 45.92869 8.59356 15504 ft 362 kts 162°
2026-05-06 13:55 45.90522 8.60626 14984 ft 360 kts 160°
2026-05-06 13:56 45.88381 8.62403 14483 ft 356 kts 144°
2026-05-06 13:56 45.86476 8.64688 14017 ft 356 kts 143°
2026-05-06 13:56 45.84564 8.66978 13518 ft 360 kts 143°
2026-05-06 13:56 45.82608 8.69279 12982 ft 367 kts 144°
2026-05-06 13:57 45.80620 8.71587 12469 ft 369 kts 144°
2026-05-06 13:57 45.78622 8.73887 11989 ft 366 kts 144°
2026-05-06 13:57 45.76678 8.76119 11859 ft 351 kts 145°
2026-05-06 13:57 45.74691 8.78004 11700 ft 335 kts 154°
2026-05-06 13:58 45.72669 8.79522 11560 ft 322 kts 156°
2026-05-06 13:58 45.70700 8.80933 11421 ft 311 kts 156°
2026-05-06 13:58 45.68809 8.82318 11292 ft 299 kts 155°
2026-05-06 13:58 45.67042 8.83647 11186 ft 288 kts 155°
2026-05-06 13:59 45.65309 8.84970 11057 ft 277 kts 155°
2026-05-06 13:59 45.63647 8.86244 10953 ft 265 kts 155°
2026-05-06 13:59 45.62055 8.87456 10826 ft 252 kts 158°
2026-05-06 13:59 45.60433 8.88202 10567 ft 244 kts 172°
2026-05-06 14:00 45.58729 8.88628 10319 ft 254 kts 173°
2026-05-06 14:00 45.56965 8.89051 10023 ft 259 kts 173°
2026-05-06 14:00 45.55193 8.89502 9716 ft 258 kts 172°
2026-05-06 14:00 45.53433 8.89969 9374 ft 257 kts 172°
2026-05-06 14:01 45.51686 8.90438 9037 ft 254 kts 172°
2026-05-06 14:01 45.49960 8.90904 8660 ft 253 kts 172°
2026-05-06 14:01 45.48224 8.91375 8222 ft 254 kts 172°
2026-05-06 14:01 45.46489 8.91846 7780 ft 255 kts 171°
2026-05-06 14:02 45.44742 8.92321 7349 ft 256 kts 171°
2026-05-06 14:02 45.42981 8.92799 6905 ft 259 kts 171°
2026-05-06 14:02 45.41216 8.93278 6577 ft 258 kts 171°
2026-05-06 14:02 45.39450 8.93756 6149 ft 259 kts 171°
2026-05-06 14:03 45.37706 8.94231 5924 ft 250 kts 171°
2026-05-06 14:03 45.36069 8.94676 5880 ft 234 kts 171°
2026-05-06 14:03 45.34504 8.95100 5869 ft 226 kts 171°
2026-05-06 14:03 45.32941 8.95522 5876 ft 225 kts 171°
2026-05-06 14:04 45.31424 8.95932 5876 ft 226 kts 171°
2026-05-06 14:04 45.29878 8.96350 5873 ft 226 kts 171°
2026-05-06 14:04 45.28334 8.96770 5876 ft 226 kts 171°
2026-05-06 14:04 45.26789 8.97189 5810 ft 226 kts 171°
2026-05-06 14:05 45.25254 8.97606 5813 ft 225 kts 171°
2026-05-06 14:05 45.23711 8.98025 5813 ft 225 kts 171°
2026-05-06 14:05 45.22196 8.98436 5800 ft 218 kts 172°
2026-05-06 14:05 45.20718 8.98832 5804 ft 215 kts 172°
2026-05-06 14:06 45.19250 8.99224 5808 ft 215 kts 171°
2026-05-06 14:06 45.17775 8.99618 5859 ft 215 kts 171°
2026-05-06 14:06 45.16307 9.00013 5839 ft 217 kts 172°
2026-05-06 14:06 45.14818 9.00412 5829 ft 218 kts 172°
2026-05-06 14:07 45.13321 9.00809 5818 ft 219 kts 172°
2026-05-06 14:07 45.11819 9.01210 5821 ft 220 kts 172°
2026-05-06 14:07 45.10325 9.01611 5816 ft 218 kts 172°
2026-05-06 14:07 45.08833 9.02010 5818 ft 217 kts 173°
2026-05-06 14:08 45.07385 9.01867 5807 ft 209 kts 203°
2026-05-06 14:08 45.06234 9.00641 5816 ft 210 kts 229°
2026-05-06 14:08 45.05520 8.98845 5699 ft 214 kts 251°
2026-05-06 14:08 45.05196 8.96759 5578 ft 220 kts 256°
2026-05-06 14:09 45.04922 8.94602 5398 ft 223 kts 256°
2026-05-06 14:09 45.04682 8.92448 5199 ft 221 kts 264°
2026-05-06 14:09 45.05035 8.90335 5010 ft 225 kts 297°
2026-05-06 14:09 45.06101 8.88720 4982 ft 230 kts 322°
2026-05-06 14:10 45.07598 8.87849 4938 ft 237 kts 345°
2026-05-06 14:10 45.09243 8.87406 4910 ft 244 kts 348°
2026-05-06 14:10 45.10906 8.86999 4905 ft 240 kts 348°
2026-05-06 14:10 45.12528 8.86593 4817 ft 239 kts 348°
2026-05-06 14:11 45.14169 8.86173 4759 ft 236 kts 348°
2026-05-06 14:11 45.15756 8.85758 4713 ft 234 kts 347°
2026-05-06 14:11 45.17384 8.85321 4692 ft 241 kts 347°
2026-05-06 14:11 45.19058 8.84867 4640 ft 242 kts 347°
2026-05-06 14:12 45.20685 8.84426 4606 ft 240 kts 347°
2026-05-06 14:12 45.22325 8.83982 4547 ft 239 kts 347°
2026-05-06 14:12 45.23974 8.83534 4496 ft 237 kts 347°
2026-05-06 14:12 45.25592 8.83093 4526 ft 236 kts 347°
2026-05-06 14:13 45.27181 8.82660 4487 ft 236 kts 347°
2026-05-06 14:13 45.28795 8.82221 4453 ft 236 kts 347°
2026-05-06 14:13 45.30411 8.81781 4420 ft 237 kts 347°
2026-05-06 14:13 45.32026 8.81340 4375 ft 237 kts 347°
2026-05-06 14:14 45.33616 8.80908 4339 ft 227 kts 347°
2026-05-06 14:14 45.35130 8.80497 4287 ft 216 kts 347°
2026-05-06 14:14 45.36585 8.80101 4255 ft 211 kts 347°
2026-05-06 14:14 45.38026 8.79707 4250 ft 212 kts 347°
2026-05-06 14:15 45.39484 8.79306 4212 ft 214 kts 348°
2026-05-06 14:15 45.40949 8.78902 4189 ft 213 kts 348°
2026-05-06 14:15 45.42383 8.78509 4184 ft 206 kts 347°
2026-05-06 14:15 45.43758 8.78133 4130 ft 197 kts 348°
2026-05-06 14:16 45.45081 8.77772 4135 ft 191 kts 348°
2026-05-06 14:16 45.46439 8.77400 4117 ft 207 kts 348°
2026-05-06 14:16 45.47843 8.77015 4058 ft 201 kts 348°
2026-05-06 14:16 45.49166 8.76654 3837 ft 187 kts 347°
2026-05-06 14:17 45.50402 8.76320 3434 ft 175 kts 348°
2026-05-06 14:17 45.51551 8.76009 3050 ft 161 kts 349°
2026-05-06 14:17 45.52633 8.75715 2523 ft 157 kts 349°
2026-05-06 14:17 45.53677 8.75425 2111 ft 149 kts 349°
2026-05-06 14:18 45.54737 8.75136 2096 ft 157 kts 350°
2026-05-06 14:18 45.55798 8.74918 2028 ft 152 kts 357°
2026-05-06 14:18 45.56839 8.74851 1719 ft 146 kts 357°
2026-05-06 14:18 45.57820 8.74742 1345 ft 140 kts 355°
2026-05-06 14:19 45.58771 8.74534 1435 ft 146 kts 350°
2026-05-06 14:19 45.59794 8.74233 1350 ft 153 kts 348°
2026-05-06 14:19 45.60834 8.73931 898 ft 147 kts 351°
2026-05-06 14:19 45.61760 8.73703 715 ft 124 kts 350°
2026-05-06 14:20 45.62500 8.73494 728 ft 87 kts 349°
2026-05-06 14:20 45.62943 8.73366 732 ft 43 kts 347°
2026-05-06 14:20 45.63152 8.73236 737 ft 32 kts 323°
2026-05-06 14:20 45.63259 8.73073 740 ft 22 kts 307°
2026-05-06 14:21 45.63344 8.72893 740 ft 22 kts 303°
2026-05-06 14:21 45.63385 8.72696 742 ft 22 kts 249°
2026-05-06 14:21 45.63271 8.72557 745 ft 22 kts 213°
2026-05-06 14:21 45.63147 8.72438 742 ft 22 kts 214°
2026-05-06 14:22 45.63041 8.72287 742 ft 22 kts 248°
2026-05-06 14:22 45.63018 8.72144 744 ft 22 kts 259°
2026-05-06 14:22 45.62953 8.71947 740 ft 16 kts 182°
2026-05-06 14:22 45.62839 8.71980 739 ft 17 kts 171°
2026-05-06 14:23 45.62717 8.72013 738 ft 19 kts 169°
2026-05-06 14:23 45.62586 8.72049 736 ft 20 kts 169°
2026-05-06 14:23 45.62446 8.72087 733 ft 21 kts 169°
2026-05-06 14:23 45.62300 8.72129 730 ft 22 kts 168°
2026-05-06 14:24 45.62200 8.72157 728 ft 22 kts 169°
2026-05-06 14:24 45.62053 8.72197 725 ft 22 kts 170°
2026-05-06 14:24 45.61905 8.72234 723 ft 22 kts 173°
2026-05-06 14:24 45.61829 8.72098 724 ft 17 kts 235°
2026-05-06 14:25 45.61713 8.72094 721 ft 18 kts 168°
2026-05-06 14:25 45.61640 8.72075 720 ft 7 kts 244°
2026-05-06 14:25 45.61632 8.72001 720 ft 8 kts 260°
2026-05-06 14:25 45.61628 8.71974 717 ft 0 kts 259°
2026-05-06 14:26 45.61628 8.71973 717 ft 0 kts 259°